Nashville, TN

8:22 AM CDT on September 15, 2019 (GMT -0500)
Nashville International

Weather History for KBNA - May, 2019

Change the Weather History Date:

Thursday, May 9, 2019

  Actual Average Record
Temperature  
Mean Temperature 71 °F -  
Max Temperature 78 °F - 90 °F (1936)
Min Temperature 63 °F - 37 °F (1960)
Cooling Degree Days 6    
Month to date cooling degree days 50  
Year to date cooling degree days 109  
Growing Degree Days 18 (Base 50)    
Moisture  
Dew Point 62 °F    
Average Humidity 77    
Maximum Humidity 87    
Minimum Humidity 60    
Precipitation  
Precipitation 0.40 in - 1.18 in (1909)
Month to date precipitation 1.09  
Year to date precipitation 28.97  
Sea Level Pressure  
Sea Level Pressure 29.93 in    
Wind  
Wind Speed 8 mph (SSW)    
Max Wind Speed 29 mph    
Max Gust Speed 42 mph    
Visibility 8 miles    
Events Rain    
T = Trace of Precipitation, MM = Missing Value Source: NWS Daily Summary

Daily Weather History Graph

Daily Weather History Graph

Search for Another Location

Airport or City:

Astronomy

May. 09, 2019 Rise Set
Actual Time 5:46 AM CDT 7:40 PM CDT
Civil Twilight 5:17 AM CDT 8:08 PM CDT
Nautical Twilight 4:43 AM CDT 8:43 PM CDT
Astronomical Twilight 4:07 AM CDT 9:19 PM CDT
Moon 9:43 AM CDT (5/9) No Moon Set
Length of Visible Light 14h 51m
Length of Day
13h 54m
Waxing Crescent, 25% of the Moon is Illuminated
May 9
Waxing Crescent
May 11
First Quarter
May 18
Full
May 26
Last Quarter
Jun 3
New

Hourly Weather History & Observations

Time (CDT) Temp. Dew Point Humidity Pressure Visibility Wind Dir Wind Speed Gust Speed Precip Events Conditions
12:53 AM 75.9 °F 61.0 °F 60% 29.88 in 10.0 mi South 15.0 mph - N/A   Overcast
1:53 AM 75.9 °F 61.0 °F 60% 29.87 in 10.0 mi South 16.1 mph 26.5 mph N/A   Overcast
2:53 AM 75.9 °F 62.1 °F 62% 29.81 in 10.0 mi South 21.9 mph 38.0 mph N/A   Overcast
3:53 AM 73.9 °F 63.0 °F 68% 29.84 in 10.0 mi SSW 18.4 mph 25.3 mph N/A   Overcast
4:53 AM 73.0 °F 62.1 °F 68% 29.87 in 10.0 mi SSW 17.3 mph 31.1 mph N/A   Mostly Cloudy
5:53 AM 72.0 °F 61.0 °F 68% 29.88 in 10.0 mi SSW 17.3 mph - N/A   Mostly Cloudy
6:53 AM 73.0 °F 61.0 °F 66% 29.91 in 10.0 mi South 11.5 mph - N/A   Overcast
7:53 AM 73.0 °F 62.1 °F 68% 29.93 in 10.0 mi SSW 10.4 mph - N/A   Overcast
8:53 AM 72.0 °F 61.0 °F 68% 29.96 in 10.0 mi SSW 9.2 mph - 0.00 in   Overcast
9:53 AM 69.1 °F 62.1 °F 78% 29.97 in 10.0 mi South 9.2 mph - 0.00 in   Overcast
10:53 AM 68.0 °F 63.0 °F 84% 29.98 in 7.0 mi SSW 5.8 mph - 0.01 in Rain Light Rain
11:10 AM 68.0 °F 64.0 °F 87% 29.99 in 2.5 mi SW 3.5 mph - 0.02 in Rain Rain
11:22 AM 68.0 °F 62.1 °F 81% 29.99 in 5.0 mi Calm Calm - 0.03 in Rain Light Rain
11:32 AM 68.0 °F 63.0 °F 84% 29.99 in 2.5 mi SSW 4.6 mph - 0.05 in Rain Rain
11:53 AM 66.9 °F 62.1 °F 84% 29.97 in 2.5 mi WSW 3.5 mph - 0.08 in Rain Light Rain
11:56 AM 66.9 °F 62.1 °F 84% 29.99 in 4.0 mi West 4.6 mph - 0.00 in Rain Light Rain
12:15 PM 66.0 °F 62.1 °F 87% 29.98 in 2.0 mi WNW 6.9 mph - 0.05 in Rain Rain
12:32 PM 64.9 °F 60.1 °F 84% 29.98 in 1.5 mi WNW 6.9 mph - 0.11 in Rain Heavy Rain
12:43 PM 64.9 °F 61.0 °F 87% 29.97 in 2.0 mi NNW 3.5 mph - 0.20 in Rain Rain
12:53 PM 64.9 °F 60.1 °F 84% 29.94 in 2.5 mi Calm Calm - 0.23 in Rain Rain
1:18 PM 64.9 °F 61.0 °F 87% 29.92 in 4.0 mi East 6.9 mph - 0.08 in Rain Light Rain
1:46 PM 66.0 °F 62.1 °F 87% 29.89 in 10.0 mi East 8.1 mph - 0.08 in   Overcast
1:53 PM 66.0 °F 62.1 °F 87% 29.87 in 10.0 mi ENE 6.9 mph - 0.08 in   Overcast
2:53 PM 68.0 °F 63.0 °F 84% 29.88 in 10.0 mi East 4.6 mph - N/A   Overcast
3:39 PM 69.1 °F 62.1 °F 78% 29.88 in 10.0 mi NE 4.6 mph - N/A   Overcast
3:53 PM 70.0 °F 63.0 °F 78% 29.87 in 10.0 mi NE 4.6 mph - N/A   Overcast
4:53 PM 70.0 °F 63.0 °F 78% 29.88 in 10.0 mi Calm Calm - N/A   Overcast
5:31 PM 71.1 °F 64.0 °F 78% 29.90 in 10.0 mi Calm Calm - N/A   Overcast
5:53 PM 70.0 °F 64.0 °F 81% 29.89 in 10.0 mi WSW 3.5 mph - N/A   Overcast
6:53 PM 70.0 °F 63.0 °F 78% 29.90 in 10.0 mi SSW 5.8 mph - N/A   Overcast
7:18 PM 69.1 °F 63.0 °F 81% 29.92 in 10.0 mi SSW 8.1 mph - N/A   Overcast
7:53 PM 68.0 °F 62.1 °F 81% 29.94 in 10.0 mi SSW 6.9 mph - N/A   Mostly Cloudy
8:38 PM 66.9 °F 62.1 °F 84% 29.97 in 10.0 mi SSW 9.2 mph - N/A   Mostly Cloudy
8:53 PM 66.9 °F 62.1 °F 84% 29.96 in 10.0 mi SSW 9.2 mph - N/A   Mostly Cloudy
9:53 PM 66.0 °F 61.0 °F 84% 29.98 in 10.0 mi South 5.8 mph - N/A   Mostly Cloudy
10:11 PM 66.0 °F 61.0 °F 84% 30.01 in 10.0 mi SSW 5.8 mph - N/A   Mostly Cloudy
10:53 PM 64.9 °F 61.0 °F 87% 29.98 in 10.0 mi South 5.8 mph - N/A   Mostly Cloudy
11:00 PM 64.9 °F 61.0 °F 87% 29.99 in 10.0 mi South 6.9 mph - N/A   Scattered Clouds
11:53 PM 64.0 °F 60.1 °F 87% 29.97 in 10.0 mi SSW 4.6 mph - N/A   Clear